Location: Milton Keynes
(52.0316°N, 0.7531°W)
Time: 20:08:44
(UTC+00:00)

GENESIS II - Pass Details

Date: 01 February 2019
Orbit: 487 x 544 km, 64.5° (Epoch: 19 February)

Event Time Altitude Azimuth Distance (km) Brightness Sun altitude
Exits shadow 04:23:39 12° 132° (SE) 1,645 7.1 -30.7°
Maximum altitude 04:24:54 13° 112° (ESE) 1,564 7.2 -30.5°
Drops below altitude 10° 04:26:48 10° 83° (E) 1,771 7.8 -30.2°
Sets 04:29:59 0° 57° (ENE) 2,681 8.8 -29.8°
